Location: Brusselsch Zeekanaal
(50.8667°N, 4.3667°E)
Time: 00:11:08
(UTC+00:00)

Iridium 4 Rocket - Pass Details

Date: 08 November 2025
Orbit: 579 x 888 km, 86.9° (Epoch: 04 December)

Event Time Altitude Azimuth Distance (km) Brightness Sun altitude
Rises 04:24:00 0° 359° (N) 2,979 6.6 -22.6°
Reaches altitude 10° 04:26:22 10° 4° (N) 2,022 5.7 -22.2°
Maximum altitude 04:30:42 55° 82° (E) 731 3.7 -21.5°
Drops below altitude 10° 04:34:47 10° 161° (SSE) 1,906 5.8 -20.9°
Sets 04:36:57 0° 166° (SSE) 2,789 6.6 -20.6°
